When you browse on this site, cookies collect data to enhance your experience and personalize the content and advertising you see.
Visit our Privacy Policy to learn more. By continuing to use the site, you agree to this use of cookies and data.
  • In Schweiz
  • Länderverzeichnis
  • Für 7 Tage
  • Wassertemperatur
  • Wetterkarte
  • Widgets
  • user-avatar
    Anmelden

    Stündliche Wetter Bedford

    Heute, 13 Dezember, Freitag

    Zeit Temperatur Niederschläge Wind Luftdruck Luftfeuchtigkeit
    00:00 +5°C° 0.7 mm 3 m/S 725 mmHg 95%
    01:00 +5°C° 0.5 mm 4 m/S 725 mmHg 94%
    02:00 +5°C° 0.5 mm 5 m/S 725 mmHg 93%
    03:00 +4°C° 0.5 mm 7 m/S 725 mmHg 92%
    04:00 +4°C° 0.9 mm 7 m/S 725 mmHg 92%
    05:00 +4°C° 0.9 mm 8 m/S 726 mmHg 92%
    06:00 +2°C° 0.9 mm 9 m/S 727 mmHg 91%
    07:00 +2°C° 0.2 mm 8 m/S 728 mmHg 88%
    08:00 +2°C° 0.2 mm 8 m/S 729 mmHg 85%
    09:00 +4°C° 0.2 mm 8 m/S 730 mmHg 82%
    10:00 +4°C° 0 mm 8 m/S 731 mmHg 81%
    11:00 +4°C° 0 mm 8 m/S 732 mmHg 80%
    12:00 +4°C° 0 mm 8 m/S 732 mmHg 79%
    13:00 +4°C° 0 mm 8 m/S 733 mmHg 79%
    14:00 +3°C° 0 mm 9 m/S 733 mmHg 80%
    15:00 +3°C° 0 mm 10 m/S 733 mmHg 80%
    16:00 +3°C° 0 mm 9 m/S 734 mmHg 80%
    17:00 +3°C° 0 mm 9 m/S 734 mmHg 80%
    18:00 +3°C° 0 mm 9 m/S 735 mmHg 80%
    19:00 +2°C° 0 mm 8 m/S 734 mmHg 80%
    20:00 +2°C° 0 mm 7 m/S 734 mmHg 81%
    21:00 +2°C° 0 mm 6 m/S 734 mmHg 81%
    22:00 +2°C° 0.1 mm 5 m/S 733 mmHg 84%
    23:00 +3°C° 0.1 mm 4 m/S 733 mmHg 87%

    Morgen, 14 Dezember, Samstag

    Zeit Temperatur Niederschläge Wind Luftdruck Luftfeuchtigkeit
    00:00 +3°C° 0.1 mm 3 m/S 732 mmHg 91%
    01:00 +4°C° 0.2 mm 4 m/S 732 mmHg 90%
    02:00 +3°C° 0.2 mm 5 m/S 733 mmHg 90%
    03:00 +3°C° 0.2 mm 6 m/S 733 mmHg 90%
    04:00 +3°C° 0.1 mm 7 m/S 734 mmHg 84%
    05:00 +1°C° 0.1 mm 9 m/S 735 mmHg 79%
    06:00 +1°C° 0.1 mm 10 m/S 736 mmHg 73%
    07:00 +1°C° 0 mm 9 m/S 737 mmHg 73%
    08:00 +1°C° 0 mm 8 m/S 737 mmHg 73%
    09:00 +2°C° 0 mm 7 m/S 738 mmHg 73%
    10:00 +1°C° 0 mm 8 m/S 738 mmHg 72%
    11:00 +2°C° 0 mm 9 m/S 739 mmHg 71%
    12:00 +2°C° 0 mm 9 m/S 739 mmHg 70%
    13:00 +2°C° 0 mm 8 m/S 740 mmHg 69%
    14:00 +3°C° 0 mm 7 m/S 740 mmHg 68%
    15:00 +2°C° 0 mm 6 m/S 740 mmHg 68%
    16:00 +2°C° 0 mm 6 m/S 740 mmHg 71%
    17:00 +2°C° 0 mm 6 m/S 740 mmHg 74%
    18:00 +1°C° 0 mm 6 m/S 739 mmHg 78%
    19:00 +2°C° 0.6 mm 7 m/S 738 mmHg 82%
    20:00 +2°C° 0.6 mm 8 m/S 738 mmHg 85%
    21:00 +3°C° 0.6 mm 9 m/S 737 mmHg 89%
    22:00 +3°C° 0.5 mm 9 m/S 737 mmHg 87%
    23:00 +2°C° 0.5 mm 9 m/S 736 mmHg 85%

    übermorgen, 15 Dezember, Sonntag

    Zeit Temperatur Niederschläge Wind Luftdruck Luftfeuchtigkeit
    00:00 +2°C° 0.5 mm 10 m/S 736 mmHg 83%
    01:00 +1°C° 0 mm 9 m/S 737 mmHg 80%
    02:00 +1°C° 0 mm 9 m/S 738 mmHg 77%
    03:00 +1°C° 0 mm 9 m/S 739 mmHg 75%
    04:00 +1°C° 0 mm 8 m/S 740 mmHg 74%
    05:00 0°C° 0 mm 7 m/S 741 mmHg 74%
    06:00 +1°C° 0 mm 6 m/S 742 mmHg 74%
    07:00 +1°C° 0 mm 6 m/S 742 mmHg 76%
    08:00 +2°C° 0 mm 7 m/S 743 mmHg 77%
    09:00 +2°C° 0 mm 7 m/S 743 mmHg 79%
    10:00 +3°C° 0 mm 7 m/S 743 mmHg 77%
    11:00 +2°C° 0 mm 8 m/S 744 mmHg 74%
    12:00 +4°C° 0 mm 8 m/S 744 mmHg 72%
    13:00 +4°C° 0 mm 7 m/S 744 mmHg 74%
    14:00 +4°C° 0 mm 6 m/S 744 mmHg 75%
    15:00 +3°C° 0 mm 5 m/S 744 mmHg 77%
    16:00 +3°C° 0 mm 5 m/S 744 mmHg 78%
    17:00 +3°C° 0 mm 6 m/S 744 mmHg 79%
    18:00 +3°C° 0 mm 6 m/S 743 mmHg 80%
    19:00 +3°C° 0.4 mm 6 m/S 744 mmHg 81%
    20:00 +3°C° 0.4 mm 6 m/S 744 mmHg 83%
    21:00 +3°C° 0.4 mm 5 m/S 744 mmHg 84%
    22:00 +2°C° 0 mm 5 m/S 744 mmHg 84%
    23:00 +2°C° 0 mm 5 m/S 745 mmHg 83%

    16 Dezember, Montag

    Zeit Temperatur Niederschläge Wind Luftdruck Luftfeuchtigkeit
    00:00 +2°C° 0 mm 5 m/S 745 mmHg 82%
    01:00 +3°C° 0 mm 6 m/S 745 mmHg 81%
    02:00 +3°C° 0 mm 6 m/S 745 mmHg 80%
    03:00 +3°C° 0 mm 7 m/S 745 mmHg 80%
    04:00 +3°C° 0 mm 6 m/S 745 mmHg 80%
    05:00 +3°C° 0 mm 6 m/S 745 mmHg 80%
    06:00 +3°C° 0 mm 6 m/S 745 mmHg 81%
    07:00 +3°C° 0 mm 6 m/S 746 mmHg 81%
    08:00 +2°C° 0 mm 6 m/S 747 mmHg 81%
    09:00 +2°C° 0 mm 5 m/S 747 mmHg 81%
    10:00 +3°C° 0 mm 5 m/S 747 mmHg 80%
    11:00 +5°C° 0 mm 5 m/S 748 mmHg 79%
    12:00 +5°C° 0 mm 5 m/S 748 mmHg 78%
    13:00 +5°C° 0 mm 4 m/S 748 mmHg 80%
    14:00 +5°C° 0 mm 3 m/S 748 mmHg 82%
    15:00 +5°C° 0 mm 2 m/S 748 mmHg 85%
    16:00 +5°C° 0 mm 2 m/S 748 mmHg 85%
    17:00 +4°C° 0 mm 2 m/S 748 mmHg 86%
    18:00 +4°C° 0 mm 2 m/S 749 mmHg 87%
    19:00 +4°C° 0 mm 2 m/S 749 mmHg 86%
    20:00 +5°C° 0 mm 1 m/S 749 mmHg 85%
    21:00 +5°C° 0 mm 1 m/S 749 mmHg 84%
    22:00 +5°C° 0 mm 1 m/S 749 mmHg 85%
    23:00 +5°C° 0 mm 1 m/S 749 mmHg 85%

    17 Dezember, Dienstag

    Zeit Temperatur Niederschläge Wind Luftdruck Luftfeuchtigkeit
    00:00 +5°C° 0 mm 1 m/S 750 mmHg 86%
    01:00 +4°C° 0 mm 2 m/S 750 mmHg 88%
    02:00 +4°C° 0 mm 2 m/S 750 mmHg 90%
    03:00 +4°C° 0 mm 2 m/S 750 mmHg 92%
    04:00 +4°C° 0 mm 2 m/S 750 mmHg 92%
    05:00 +4°C° 0 mm 2 m/S 750 mmHg 93%
    06:00 +4°C° 0 mm 2 m/S 750 mmHg 94%
    07:00 +4°C° 0 mm 2 m/S 751 mmHg 93%
    08:00 +4°C° 0 mm 2 m/S 751 mmHg 93%
    09:00 +3°C° 0 mm 2 m/S 751 mmHg 93%
    10:00 +4°C° 0 mm 2 m/S 752 mmHg 90%
    11:00 +4°C° 0 mm 3 m/S 752 mmHg 88%
    12:00 +5°C° 0 mm 3 m/S 752 mmHg 85%
    13:00 +5°C° 0 mm 3 m/S 752 mmHg 86%
    14:00 +5°C° 0 mm 3 m/S 752 mmHg 86%
    15:00 +5°C° 0 mm 3 m/S 753 mmHg 87%
    16:00 +4°C° 0 mm 3 m/S 753 mmHg 89%
    17:00 +3°C° 0 mm 3 m/S 754 mmHg 90%
    18:00 +3°C° 0 mm 3 m/S 754 mmHg 92%
    19:00 +2°C° 0 mm 3 m/S 755 mmHg 92%
    20:00 +2°C° 0 mm 3 m/S 756 mmHg 93%
    21:00 +1°C° 0 mm 3 m/S 756 mmHg 93%
    22:00 +1°C° 0 mm 3 m/S 757 mmHg 92%
    23:00 +1°C° 0 mm 3 m/S 757 mmHg 91%

    18 Dezember, Mittwoch

    Zeit Temperatur Niederschläge Wind Luftdruck Luftfeuchtigkeit
    00:00 +2°C° 0 mm 2 m/S 758 mmHg 90%
    01:00 +2°C° 0 mm 2 m/S 758 mmHg 90%
    02:00 +2°C° 0 mm 2 m/S 759 mmHg 91%
    03:00 +2°C° 0 mm 2 m/S 759 mmHg 91%
    04:00 +2°C° 0 mm 2 m/S 759 mmHg 90%
    05:00 +2°C° 0 mm 2 m/S 759 mmHg 90%
    06:00 +2°C° 0 mm 2 m/S 759 mmHg 90%
    07:00 +2°C° 0 mm 2 m/S 760 mmHg 88%
    08:00 +2°C° 0 mm 2 m/S 760 mmHg 87%
    09:00 +2°C° 0 mm 2 m/S 761 mmHg 86%
    10:00 +3°C° 0 mm 3 m/S 760 mmHg 86%
    11:00 +4°C° 0 mm 3 m/S 760 mmHg 85%
    12:00 +5°C° 0 mm 3 m/S 760 mmHg 85%
    13:00 +5°C° 0 mm 3 m/S 760 mmHg 86%
    14:00 +5°C° 0 mm 3 m/S 760 mmHg 88%
    15:00 +5°C° 0 mm 3 m/S 760 mmHg 89%
    16:00 +4°C° 0 mm 3 m/S 759 mmHg 90%
    17:00 +3°C° 0 mm 4 m/S 759 mmHg 91%
    18:00 +3°C° 0 mm 4 m/S 759 mmHg 92%
    19:00 +3°C° 0 mm 4 m/S 759 mmHg 92%
    20:00 +3°C° 0 mm 4 m/S 759 mmHg 93%
    21:00 +3°C° 0 mm 4 m/S 759 mmHg 93%
    22:00 +3°C° 0 mm 4 m/S 759 mmHg 94%
    23:00 +3°C° 0 mm 4 m/S 758 mmHg 95%
    Mehr zeigen